SCP
-0 0 -0 -0 -0 -0 -0 -0 -0 -0 -1 -1 -1 -1 -1 -1 -0 -0 -0 -0 -0 -0 0 -0 -0 -0 -0 -0 -0 -0 0 0 0 0 0 0 0 0 0 0 0 0 0
0 -0 -0 -0 -1 -0 -0 -0 -0 -0 -0 -0 -1 -1 -0 -0 -0 -0 -0 -0 -0 -0 -0 0 0 -0 -0 -0 -0 0 0 0 0 0 0 0 0 0 0 0 0 0 0
-0 -0 -0 -0 -0 -1 -0 -0 -0 -0 -0 -0 -0 -0 -0 -0 -0 -0 -0 -0 -0 -0 -0 0 0 0 0 0 0 0 0 0 0 0 0 0 0 0 0 0 0 0 0
0 0 -0 -0 -0 -0 -0 -0 -0 -0 -0 -0 -0 -0 -0 -0 -0 -0 -0 -0 -0 -0 0 0 0 0 0 0 0 0 0 0 0 0 0 0 0 0 0 0 0 0 0
0 0 0 -0 -0 -0 -0 -0 -0 -0 -0 -0 -0 -0 0 -0 -0 -0 -0 -0 -0 0 0 0 0 0 0 0 0 0 0 0 0 0 0 0 0 0 0 0 0 0 0
0 0 0 -0 -0 -0 -0 -0 -0 -0 -0 -0 -0 -0 -0 0 0 -0 -0 0 0 0 0 0 0 0 0 0 0 0 0 0 0 0 0 0 0 0 0 0 0 0 0
0 1 1 0 0 -0 -0 -0 -0 -0 -0 -0 -0 -0 -0 -0 0 -0 0 0 0 0 0 0 0 0 0 0 0 0 0 0 0 0 0 0 0 0 0 0 0 0 0
0 1 1 1 0 0 0 -0 -0 -0 -0 -0 -0 -0 -0 -0 -0 0 0 0 0 0 0 0 0 0 0 0 0 0 0 0 0 0 0 0 0 0 0 0 0 0 0
0 1 1 1 1 1 0 0 0 -0 -0 -0 0 -0 -0 -0 -0 0 0 0 0 0 0 0 0 0 0 0 0 0 0 0 0 0 0 0 0 0 0 0 0 0 0
1 0 1 1 1 1 1 1 0 0 0 0 0 0 0 0 0 0 0 0 0 0 0 0 0 0 0 0 0 0 0 0 0 0 0 0 0 0 0 0 0 0 0
1 1 1 1 1 2 1 1 1 0 0 0 0 0 0 0 0 0 0 0 0 0 0 0 0 0 0 0 0 0 0 0 0 0 0 0 0 0 0 0 0 0 0
1 1 1 1 1 1 2 2 1 1 1 1 1 1 0 0 0 0 0 0 0 0 0 0 0 0 0 0 0 0 0 0 0 0 0 0 0 0 0 0 0 0 0
2 2 1 2 2 2 2 2 2 2 1 1 1 1 0 0 0 1 0 0 0 0 0 0 0 0 0 0 0 0 0 0 0 0 0 0 0 0 0 0 0 0 0
1 1 2 2 2 2 2 2 2 2 2 1 1 0 0 0 0 0 0 0 0 0 0 0 0 0 0 0 0 0 0 0 0 0 0 0 0 0 0 0 0 0 0
0 0 1 2 2 2 2 2 2 2 1 1 1 0 0 0 0 0 0 0 0 0 0 0 0 0 0 0 0 0 0 0 0 0 0 0 0 0 0 0 0 0 0
0 0 1 2 2 2 2 2 2 2 2 1 1 1 0 0 0 0 0 0 0 0 0 0 0 0 0 0 0 0 0 0 0 0 0 0 0 0 0 0 0 0 0
0 0 2 2 2 2 2 2 2 2 2 1 1 1 1 0 0 0 0 0 0 0 0 0 0 0 0 0 0 0 0 0 0 0 0 0 0 0 0 0 0 0 0
0 0 0 3 3 2 2 3 2 2 2 2 1 1 1 0 0 0 0 0 0 0 0 0 0 0 0 0 0 0 0 0 0 0 0 0 0 0 0 0 0 0 0
0 0 0 0 4 3 2 3 3 2 2 2 2 1 1 0 0 0 0 0 0 0 0 0 0 0 0 0 0 0 0 0 0 0 0 0 0 0 0 0 0 0 0
0 0 0 0 1 4 4 4 3 2 1 1 1 2 1 1 0 0 0 0 0 0 0 0 0 0 0 0 0 0 0 0 0 0 0 0 0 0 0 0 0 0 0
0 0 0 0 0 3 5 3 3 3 2 1 1 1 1 2 1 0 0 0 0 0 0 0 0 0 0 0 0 0 0 0 0 0 0 0 0 0 0 0 0 0 0
0 0 0 0 0 1 3 4 5 5 3 3 2 2 1 1 1 1 0 0 0 0 0 0 0 0 0 0 1 0 0 0 0 0 0 0 0 0 0 0 0 0 0
0 0 0 0 0 0 3 5 4 4 2 2 2 2 1 1 1 1 1 0 0 0 0 0 0 0 0 0 0 0 0 0 0 0 0 0 0 0 0 0 0 0 0
0 0 0 0 0 0 3 4 4 4 3 3 3 2 1 1 1 0 0 0 0 0 0 0 0 0 0 0 0 0 0 0 0 0 0 0 0 0 0 0 0 0 0
0 0 0 0 0 0 0 2 4 3 2 2 3 2 1 1 1 1 1 0 0 0 0 0 0 0 0 0 0 0 0 0 0 0 0 0 0 0 0 0 0 0 0
0 0 0 0 0 0 0 0 1 2 3 2 2 2 1 1 1 1 1 0 0 0 0 0 0 0 0 0 0 0 0 0 0 0 0 0 0 0 0 0 0 0 0
Wind_Speed_500mb
27 52 43 37 34 33 30 28 32 39 41 40 39 38 35 34 36 36 37 36 35 35 31 29 28 27 22 21 18 16 17 19 20 20 24 27 33 34 34 37 38 37 37
27 50 43 39 35 33 30 28 30 36 41 42 40 39 35 32 34 35 36 33 31 31 26 25 25 24 21 19 15 12 13 16 20 23 9 20 29 33 34 35 36 36 38
28 46 44 39 35 34 31 28 28 33 37 41 42 41 38 34 33 35 38 34 31 27 24 25 24 23 20 17 12 7 10 14 17 21 17 17 22 27 30 33 34 37 40
33 47 43 41 38 36 34 31 28 30 35 37 41 43 42 40 39 41 43 35 28 25 24 23 22 21 17 14 10 4 6 6 10 14 15 13 19 24 28 31 32 36 38
35 43 43 40 39 36 33 32 31 30 33 37 39 42 45 46 45 47 44 37 29 26 25 21 19 19 17 14 12 7 4 1 7 14 12 10 15 19 22 27 31 35 38
32 38 43 38 37 35 33 33 32 30 31 36 38 40 42 45 47 50 46 40 32 27 25 20 17 17 17 15 12 10 8 6 5 12 9 6 10 14 19 25 29 34 35
20 23 37 37 36 36 34 32 32 31 29 34 37 38 40 43 48 51 46 41 35 31 25 18 16 15 16 14 12 10 10 8 5 8 7 4 7 12 18 25 30 32 34
7 8 19 34 35 36 35 32 33 33 31 32 37 38 40 42 45 48 46 42 37 33 26 19 17 13 13 12 12 11 11 10 8 9 6 7 8 13 22 25 29 31 32
7 4 9 27 36 36 37 37 36 37 36 33 36 39 41 43 45 47 46 43 39 34 27 21 17 14 11 10 11 11 10 10 7 6 7 10 10 13 25 20 26 29 31
9 6 5 15 33 42 42 42 40 39 39 37 36 39 41 43 45 45 44 43 40 35 29 23 19 15 11 10 11 11 10 8 5 4 10 13 10 18 17 20 22 26 27
18 16 12 12 20 36 46 44 44 42 43 42 39 40 42 45 46 46 45 42 40 35 31 26 20 17 12 13 13 11 8 7 6 7 14 12 9 17 14 18 22 24 25
29 26 22 19 19 23 42 48 46 48 49 48 47 44 43 45 46 47 46 43 40 36 32 27 23 20 15 15 15 10 8 7 5 9 12 6 11 14 12 17 17 23 24
25 33 33 29 28 28 33 46 52 52 54 54 52 49 47 47 48 49 48 47 44 40 36 31 27 22 19 18 18 14 10 8 7 9 11 8 10 12 12 11 15 21 24
29 26 30 40 37 36 37 42 50 59 60 60 58 54 54 52 51 50 51 49 47 43 38 34 30 26 24 22 24 19 13 9 9 8 9 12 14 12 8 9 14 18 25
40 39 31 31 39 41 44 39 45 57 65 64 62 60 59 57 54 52 53 51 49 44 41 38 34 30 27 26 27 25 17 13 11 9 9 13 13 12 6 9 11 14 22
53 42 42 38 39 43 45 45 42 43 60 62 62 62 61 59 58 56 56 54 51 47 43 40 36 31 27 26 28 27 23 18 15 13 12 16 11 6 6 9 10 13 20
54 54 49 44 49 55 49 41 43 42 46 60 61 61 62 62 61 59 58 57 52 48 44 42 41 37 32 27 28 27 31 21 16 18 17 16 10 6 6 7 11 16 18
53 56 61 53 48 57 58 50 49 46 52 53 57 58 61 63 63 63 61 58 50 48 43 41 46 41 36 32 27 22 24 22 15 20 19 13 8 4 10 9 12 13 15
55 63 60 67 58 54 64 63 57 53 54 57 61 60 56 60 66 67 66 61 53 46 44 39 41 39 36 31 24 18 24 23 23 23 17 12 9 9 17 12 16 16 14
56 57 57 62 66 62 54 65 67 64 64 60 63 63 61 62 63 69 70 66 60 51 48 43 40 39 36 28 24 24 30 27 26 21 15 13 11 12 18 20 22 20 22
49 44 58 63 66 71 67 65 69 70 67 60 64 59 63 68 62 60 70 73 67 62 54 51 46 44 41 35 31 30 24 26 24 22 17 15 15 15 18 23 25 21 21
44 50 59 58 70 73 77 69 71 76 74 66 61 62 63 65 75 67 66 74 75 68 60 59 52 52 52 48 45 36 28 22 27 21 19 14 17 18 19 22 23 20 20
21 30 41 65 60 70 80 77 74 76 73 65 65 64 64 76 78 84 76 76 73 75 67 65 60 59 63 56 48 33 18 14 26 19 16 17 18 18 22 19 20 19 18
54 46 36 34 41 59 76 79 78 77 77 75 68 67 64 64 78 86 87 84 84 78 75 73 63 65 64 60 55 52 32 26 22 21 24 23 21 19 20 17 17 16 18
50 52 51 37 27 42 71 84 81 82 77 72 72 66 57 59 67 76 88 84 83 78 83 74 73 73 72 62 65 59 62 32 29 20 31 34 29 22 17 14 14 12 19
51 47 45 46 42 30 50 79 89 85 79 80 78 66 61 64 67 76 74 88 85 88 92 82 78 73 72 61 63 58 60 55 41 28 22 41 35 24 19 16 11 10 18
Wind_Direction_500mb
169 172 171 166 168 167 158 150 156 165 167 163 159 158 158 155 154 158 158 155 152 147 138 132 128 123 119 113 98 92 85 75 68 71 69 50 43 44 40 33 29 24 22
158 168 171 169 170 171 166 157 154 163 168 169 168 168 166 164 159 162 164 160 156 152 143 137 134 131 132 125 105 89 84 74 61 52 53 48 38 37 35 29 27 23 20
163 172 172 174 172 176 174 166 158 164 171 173 175 175 175 174 169 169 169 165 160 156 149 142 136 133 137 132 117 101 86 76 59 48 52 40 32 33 30 25 21 18 17
167 176 176 176 177 179 177 174 170 167 171 175 177 179 180 179 177 176 174 171 164 157 150 147 141 139 146 148 154 144 95 80 45 32 24 21 23 20 21 22 16 13 15
170 179 178 179 182 183 179 178 178 175 175 178 180 180 180 180 179 178 177 175 169 163 161 155 153 152 158 175 186 194 161 60 15 2 348 359 13 8 14 16 14 12 15
167 180 181 184 185 188 186 183 182 181 180 181 183 182 182 180 178 179 181 179 173 166 163 164 166 166 171 187 201 214 211 223 336 343 334 356 356 351 10 11 15 13 17
164 180 188 187 189 193 195 191 189 187 184 184 184 185 185 183 182 184 186 185 180 174 176 174 177 178 176 192 216 231 239 243 268 327 349 348 325 333 5 11 12 11 12
140 161 197 201 197 199 201 203 198 194 192 188 188 189 191 190 189 191 193 192 189 191 192 192 196 191 184 193 220 237 257 270 272 287 324 323 297 331 3 6 9 3 9
137 162 201 211 213 209 208 208 209 203 198 196 192 193 196 198 197 199 199 198 199 201 203 206 206 205 189 195 227 237 251 271 290 282 320 302 280 343 344 357 3 357 7
195 194 232 222 225 223 217 213 212 211 205 203 201 199 200 203 205 204 205 204 206 207 210 212 214 214 199 201 225 240 245 253 243 275 314 309 283 327 346 355 356 359 8
229 224 232 241 236 234 225 221 217 214 213 209 208 206 205 208 208 208 209 209 210 210 211 213 220 217 209 212 221 232 231 234 240 288 308 320 278 324 348 352 356 0 6
236 244 236 244 248 239 229 226 225 222 217 214 212 211 211 212 213 213 213 213 213 213 214 219 222 218 212 213 216 207 201 213 252 300 308 266 289 317 339 349 354 7 2
264 254 268 251 249 241 237 232 232 230 225 220 217 216 216 217 216 216 217 216 215 215 217 223 225 223 210 210 209 193 201 222 260 299 283 234 282 303 321 344 360 12 2
280 281 269 256 249 245 243 239 241 236 232 226 222 219 219 220 220 221 222 222 223 222 223 227 226 224 214 210 213 213 221 248 270 292 270 257 285 280 313 337 1 6 1
285 277 275 249 251 250 248 249 252 247 235 230 227 225 223 223 226 226 227 226 228 227 228 229 228 226 222 220 226 220 236 239 249 239 259 278 248 266 328 333 353 359 355
271 283 280 245 243 254 251 252 253 258 240 235 232 232 230 228 230 232 232 230 230 230 230 229 229 228 231 227 211 220 232 238 254 245 233 255 263 255 299 319 330 342 343
270 272 270 264 242 239 247 246 250 252 246 237 236 237 236 234 234 233 237 235 234 233 232 230 225 222 217 214 212 227 230 236 250 228 227 238 272 298 273 305 316 326 335
286 275 263 258 252 243 241 247 242 249 247 244 241 237 240 241 240 239 239 239 236 232 227 231 223 222 214 218 218 235 225 241 240 214 223 233 277 271 222 265 294 308 317
279 271 272 252 252 250 236 243 243 251 250 245 246 243 239 241 243 243 243 241 236 231 223 227 214 209 209 212 226 243 234 248 246 217 229 230 260 231 223 256 273 280 287
284 266 264 258 250 246 240 237 242 247 249 249 246 250 249 247 245 243 244 242 235 228 218 216 213 211 216 220 231 233 241 245 212 221 239 229 232 214 226 244 262 281 295
281 276 264 259 255 238 233 234 235 237 242 245 251 246 254 249 247 247 244 243 234 227 218 216 222 224 222 215 218 221 204 198 217 215 215 224 220 217 235 254 261 279 292
289 282 271 266 252 248 242 238 235 230 236 241 250 251 254 251 251 245 247 244 238 230 223 222 225 231 220 213 215 210 183 190 205 202 213 227 224 227 243 248 256 264 288
340 315 283 257 253 249 243 242 235 229 231 239 244 251 253 255 256 248 244 245 244 232 228 223 227 227 218 215 221 209 176 195 189 193 206 213 220 233 247 235 244 268 295
20 8 337 283 255 252 243 236 232 231 234 236 244 252 257 261 253 253 246 244 244 237 229 226 227 223 219 232 223 223 215 220 177 180 192 199 201 215 216 223 247 273 304
13 12 11 352 282 261 248 233 235 232 238 247 247 248 254 265 259 253 251 249 238 241 232 228 224 223 228 240 225 221 227 233 232 186 187 188 194 193 208 226 251 281 305
6 1 355 357 350 302 249 244 235 239 242 239 238 244 253 265 268 257 251 247 239 238 233 229 224 225 232 236 227 230 231 234 224 223 196 189 199 184 199 205 227 277 305
Wind_Speed_850mb
27 52 43 37 34 33 30 28 32 39 41 40 39 38 35 34 36 36 37 36 35 35 31 29 28 27 22 21 18 16 17 19 20 20 24 27 33 34 34 37 38 37 37
27 50 43 39 35 33 30 28 30 36 41 42 40 39 35 32 34 35 36 33 31 31 26 25 25 24 21 19 15 12 13 16 20 23 9 20 29 33 34 35 36 36 38
28 46 44 39 35 34 31 28 28 33 37 41 42 41 38 34 33 35 38 34 31 27 24 25 24 23 20 17 12 7 10 14 17 21 17 17 22 27 30 33 34 37 40
33 47 43 41 38 36 34 31 28 30 35 37 41 43 42 40 39 41 43 35 28 25 24 23 22 21 17 14 10 4 6 6 10 14 15 13 19 24 28 31 32 36 38
35 43 43 40 39 36 33 32 31 30 33 37 39 42 45 46 45 47 44 37 29 26 25 21 19 19 17 14 12 7 4 1 7 14 12 10 15 19 22 27 31 35 38
32 38 43 38 37 35 33 33 32 30 31 36 38 40 42 45 47 50 46 40 32 27 25 20 17 17 17 15 12 10 8 6 5 12 9 6 10 14 19 25 29 34 35
20 23 37 37 36 36 34 32 32 31 29 34 37 38 40 43 48 51 46 41 35 31 25 18 16 15 16 14 12 10 10 8 5 8 7 4 7 12 18 25 30 32 34
7 8 19 34 35 36 35 32 33 33 31 32 37 38 40 42 45 48 46 42 37 33 26 19 17 13 13 12 12 11 11 10 8 9 6 7 8 13 22 25 29 31 32
7 4 9 27 36 36 37 37 36 37 36 33 36 39 41 43 45 47 46 43 39 34 27 21 17 14 11 10 11 11 10 10 7 6 7 10 10 13 25 20 26 29 31
9 6 5 15 33 42 42 42 40 39 39 37 36 39 41 43 45 45 44 43 40 35 29 23 19 15 11 10 11 11 10 8 5 4 10 13 10 18 17 20 22 26 27
18 16 12 12 20 36 46 44 44 42 43 42 39 40 42 45 46 46 45 42 40 35 31 26 20 17 12 13 13 11 8 7 6 7 14 12 9 17 14 18 22 24 25
29 26 22 19 19 23 42 48 46 48 49 48 47 44 43 45 46 47 46 43 40 36 32 27 23 20 15 15 15 10 8 7 5 9 12 6 11 14 12 17 17 23 24
25 33 33 29 28 28 33 46 52 52 54 54 52 49 47 47 48 49 48 47 44 40 36 31 27 22 19 18 18 14 10 8 7 9 11 8 10 12 12 11 15 21 24
29 26 30 40 37 36 37 42 50 59 60 60 58 54 54 52 51 50 51 49 47 43 38 34 30 26 24 22 24 19 13 9 9 8 9 12 14 12 8 9 14 18 25
40 39 31 31 39 41 44 39 45 57 65 64 62 60 59 57 54 52 53 51 49 44 41 38 34 30 27 26 27 25 17 13 11 9 9 13 13 12 6 9 11 14 22
53 42 42 38 39 43 45 45 42 43 60 62 62 62 61 59 58 56 56 54 51 47 43 40 36 31 27 26 28 27 23 18 15 13 12 16 11 6 6 9 10 13 20
54 54 49 44 49 55 49 41 43 42 46 60 61 61 62 62 61 59 58 57 52 48 44 42 41 37 32 27 28 27 31 21 16 18 17 16 10 6 6 7 11 16 18
53 56 61 53 48 57 58 50 49 46 52 53 57 58 61 63 63 63 61 58 50 48 43 41 46 41 36 32 27 22 24 22 15 20 19 13 8 4 10 9 12 13 15
55 63 60 67 58 54 64 63 57 53 54 57 61 60 56 60 66 67 66 61 53 46 44 39 41 39 36 31 24 18 24 23 23 23 17 12 9 9 17 12 16 16 14
56 57 57 62 66 62 54 65 67 64 64 60 63 63 61 62 63 69 70 66 60 51 48 43 40 39 36 28 24 24 30 27 26 21 15 13 11 12 18 20 22 20 22
49 44 58 63 66 71 67 65 69 70 67 60 64 59 63 68 62 60 70 73 67 62 54 51 46 44 41 35 31 30 24 26 24 22 17 15 15 15 18 23 25 21 21
44 50 59 58 70 73 77 69 71 76 74 66 61 62 63 65 75 67 66 74 75 68 60 59 52 52 52 48 45 36 28 22 27 21 19 14 17 18 19 22 23 20 20
21 30 41 65 60 70 80 77 74 76 73 65 65 64 64 76 78 84 76 76 73 75 67 65 60 59 63 56 48 33 18 14 26 19 16 17 18 18 22 19 20 19 18
54 46 36 34 41 59 76 79 78 77 77 75 68 67 64 64 78 86 87 84 84 78 75 73 63 65 64 60 55 52 32 26 22 21 24 23 21 19 20 17 17 16 18
50 52 51 37 27 42 71 84 81 82 77 72 72 66 57 59 67 76 88 84 83 78 83 74 73 73 72 62 65 59 62 32 29 20 31 34 29 22 17 14 14 12 19
51 47 45 46 42 30 50 79 89 85 79 80 78 66 61 64 67 76 74 88 85 88 92 82 78 73 72 61 63 58 60 55 41 28 22 41 35 24 19 16 11 10 18
Wind_Direction_850mb
169 172 171 166 168 167 158 150 156 165 167 163 159 158 158 155 154 158 158 155 152 147 138 132 128 123 119 113 98 92 85 75 68 71 69 50 43 44 40 33 29 24 22
158 168 171 169 170 171 166 157 154 163 168 169 168 168 166 164 159 162 164 160 156 152 143 137 134 131 132 125 105 89 84 74 61 52 53 48 38 37 35 29 27 23 20
163 172 172 174 172 176 174 166 158 164 171 173 175 175 175 174 169 169 169 165 160 156 149 142 136 133 137 132 117 101 86 76 59 48 52 40 32 33 30 25 21 18 17
167 176 176 176 177 179 177 174 170 167 171 175 177 179 180 179 177 176 174 171 164 157 150 147 141 139 146 148 154 144 95 80 45 32 24 21 23 20 21 22 16 13 15
170 179 178 179 182 183 179 178 178 175 175 178 180 180 180 180 179 178 177 175 169 163 161 155 153 152 158 175 186 194 161 60 15 2 348 359 13 8 14 16 14 12 15
167 180 181 184 185 188 186 183 182 181 180 181 183 182 182 180 178 179 181 179 173 166 163 164 166 166 171 187 201 214 211 223 336 343 334 356 356 351 10 11 15 13 17
164 180 188 187 189 193 195 191 189 187 184 184 184 185 185 183 182 184 186 185 180 174 176 174 177 178 176 192 216 231 239 243 268 327 349 348 325 333 5 11 12 11 12
140 161 197 201 197 199 201 203 198 194 192 188 188 189 191 190 189 191 193 192 189 191 192 192 196 191 184 193 220 237 257 270 272 287 324 323 297 331 3 6 9 3 9
137 162 201 211 213 209 208 208 209 203 198 196 192 193 196 198 197 199 199 198 199 201 203 206 206 205 189 195 227 237 251 271 290 282 320 302 280 343 344 357 3 357 7
195 194 232 222 225 223 217 213 212 211 205 203 201 199 200 203 205 204 205 204 206 207 210 212 214 214 199 201 225 240 245 253 243 275 314 309 283 327 346 355 356 359 8
229 224 232 241 236 234 225 221 217 214 213 209 208 206 205 208 208 208 209 209 210 210 211 213 220 217 209 212 221 232 231 234 240 288 308 320 278 324 348 352 356 0 6
236 244 236 244 248 239 229 226 225 222 217 214 212 211 211 212 213 213 213 213 213 213 214 219 222 218 212 213 216 207 201 213 252 300 308 266 289 317 339 349 354 7 2
264 254 268 251 249 241 237 232 232 230 225 220 217 216 216 217 216 216 217 216 215 215 217 223 225 223 210 210 209 193 201 222 260 299 283 234 282 303 321 344 360 12 2
280 281 269 256 249 245 243 239 241 236 232 226 222 219 219 220 220 221 222 222 223 222 223 227 226 224 214 210 213 213 221 248 270 292 270 257 285 280 313 337 1 6 1
285 277 275 249 251 250 248 249 252 247 235 230 227 225 223 223 226 226 227 226 228 227 228 229 228 226 222 220 226 220 236 239 249 239 259 278 248 266 328 333 353 359 355
271 283 280 245 243 254 251 252 253 258 240 235 232 232 230 228 230 232 232 230 230 230 230 229 229 228 231 227 211 220 232 238 254 245 233 255 263 255 299 319 330 342 343
270 272 270 264 242 239 247 246 250 252 246 237 236 237 236 234 234 233 237 235 234 233 232 230 225 222 217 214 212 227 230 236 250 228 227 238 272 298 273 305 316 326 335
286 275 263 258 252 243 241 247 242 249 247 244 241 237 240 241 240 239 239 239 236 232 227 231 223 222 214 218 218 235 225 241 240 214 223 233 277 271 222 265 294 308 317
279 271 272 252 252 250 236 243 243 251 250 245 246 243 239 241 243 243 243 241 236 231 223 227 214 209 209 212 226 243 234 248 246 217 229 230 260 231 223 256 273 280 287
284 266 264 258 250 246 240 237 242 247 249 249 246 250 249 247 245 243 244 242 235 228 218 216 213 211 216 220 231 233 241 245 212 221 239 229 232 214 226 244 262 281 295
281 276 264 259 255 238 233 234 235 237 242 245 251 246 254 249 247 247 244 243 234 227 218 216 222 224 222 215 218 221 204 198 217 215 215 224 220 217 235 254 261 279 292
289 282 271 266 252 248 242 238 235 230 236 241 250 251 254 251 251 245 247 244 238 230 223 222 225 231 220 213 215 210 183 190 205 202 213 227 224 227 243 248 256 264 288
340 315 283 257 253 249 243 242 235 229 231 239 244 251 253 255 256 248 244 245 244 232 228 223 227 227 218 215 221 209 176 195 189 193 206 213 220 233 247 235 244 268 295
20 8 337 283 255 252 243 236 232 231 234 236 244 252 257 261 253 253 246 244 244 237 229 226 227 223 219 232 223 223 215 220 177 180 192 199 201 215 216 223 247 273 304
13 12 11 352 282 261 248 233 235 232 238 247 247 248 254 265 259 253 251 249 238 241 232 228 224 223 228 240 225 221 227 233 232 186 187 188 194 193 208 226 251 281 305
6 1 355 357 350 302 249 244 235 239 242 239 238 244 253 265 268 257 251 247 239 238 233 229 224 225 232 236 227 230 231 234 224 223 196 189 199 184 199 205 227 277 305